Location: East Walker River
(38.8927°N, 119.1793°W)
Time: 20:47:09
(UTC+00:00)

Daily predictions for brighter satellites

Satellite Brightness Start Highest point End
(mag) Time Altitude Azimuth Time Altitude Azimuth Time Altitude Azimuth
Cosmos 1242 Rocket 3.1 12:01:26 10° N 12:04:51 58° E 12:08:15 10° SSE
Cosmos 1656 4.0 12:00:09 10° NW 12:05:12 41° WSW 12:10:16 10° S
Lacrosse 5 4.1 12:05:24 10° WNW 12:08:38 17° NNW 12:11:52 10° NNE
CZ-2C R/B 2.4 12:06:03 10° NNE 12:10:57 87° WNW 12:15:39 10° SSW
Cosmos 1908 Rocket 3.6 12:06:40 10° SSW 12:11:05 68° W 12:15:34 10° N
